Location: Atherton
(17.2661°S, 145.4859°E)
Time: 23:10:07
(UTC+10:00)

Transit 2A - Pass Details

Date: 19 June 2025
Orbit: 598 x 948 km, 66.7° (Epoch: 19 July)

Event Time Altitude Azimuth Distance (km) Brightness Sun altitude
Rises 22:13:15 0° 212° (SSW) 3,362 - -59.8°
Reaches altitude 10° 22:15:54 10° 218° (SW) 2,365 - -60.4°
Maximum altitude 22:20:58 42° 287° (WNW) 1,048 - -61.6°
Drops below altitude 10° 22:25:31 10° 358° (N) 2,128 - -62.6°
Sets 22:27:49 0° 5° (N) 2,988 - -63.1°
